Location: Holcomb Observatory and Planetarium
(39.8415°N, 86.1714°W)
Time: 23:03:26
(UTC-04:00)

HST - Visible Passes

Search period start: 22 October 2014 00:00
Search period end: 01 November 2014 00:00
Orbit: 546 x 550 km, 28.5° (Epoch: 22 October)

Date Brightness Start Highest point End Pass type
(mag) Time Alt. Az. Time Alt. Az. Time Alt. Az.
25 Oct 3.3 20:49:55 10° SSW 20:50:43 12° S 20:50:43 12° S visible
26 Oct 3.1 20:42:05 10° SSW 20:43:54 14° S 20:43:54 14° S visible
27 Oct 2.9 20:34:25 10° SSW 20:36:57 16° S 20:37:03 16° S visible
28 Oct 2.8 20:26:50 10° SW 20:29:31 17° S 20:30:10 16° SSE visible
29 Oct 2.8 20:19:20 10° SW 20:22:05 17° S 20:23:16 15° SSE visible
30 Oct 2.9 20:11:53 10° SW 20:14:39 17° S 20:16:23 14° SSE visible
31 Oct 3.0 20:04:30 10° SW 20:07:12 17° S 20:09:31 11° SSE visible
